Regional Weather Roundup
Issued by NWS

Home | Current Version | Previous Version | Graphics & Text | Print | Product List | Glossary On
Versions: 1 2 3 4 5 6 7 8 9 10 11 12 13 14 15 16 17 18 19 20 21 22 23 24 25 26 27 28 29 30 31 32 33 34 35 36 37 38 39 40 41 42 43 44 45 46 47 48 49 50
000
ASUS43 KLSX 181307
RWRMO

WEATHER SUMMARY FOR MISSOURI
NATIONAL WEATHER SERVICE SPRINGFIELD MO
800 AM CDT SAT APR 18 2015

NOTE: "FAIR" INDICATES FEW OR NO CLOUDS BELOW 12,000 FEET WITH NO
       SIGNIFICANT WEATHER AND/OR OBSTRUCTIONS TO VISIBILITY.
       CURRENT SKY AND/OR WEATHER CONDITIONS ARE NOT AVAILABLE FOR
       CHILLICOTHE AND FARMINGTON.

MOZ001>031-035>038-043-044-053-054-181400-
...NORTHERN AND WESTERN MISSOURI...

CITY           SKY/WX    TMP DP  RH WIND       PRES   REMARKS
KANSAS CTY INT CLOUDY    62  58  86 SE7       29.91R
KANSAS C DTWN  CLOUDY    64  58  80 CALM      29.91R
LEE`S SUMMIT   CLOUDY    63  59  87 S7        29.92R
ST JOSEPH      CLOUDY    61  56  83 CALM      29.91S
CHILLICOTHE      N/A     64  58  80 E6        29.94F
KIRKSVILLE     CLOUDY    61  57  87 SE8       29.98R

$$
MOZ066>068-077>081-088>096-101>105-181400-
...SOUTHWEST MISSOURI...

CITY           SKY/WX    TMP DP  RH WIND       PRES   REMARKS
SPRINGFIELD    CLOUDY    63  58  83 SE9       29.94S
JOPLIN         TSTM      59  58  96 VRB6      29.95F FOG

$$
MOZ032>034-039>042-045>050-055>058-069>072-181400-
...CENTRAL MISSOURI...

CITY           SKY/WX    TMP DP  RH WIND       PRES   REMARKS
COLUMBIA       CLOUDY    62  59  90 SE6       29.97S
JEFFERSON CITY CLOUDY    64  59  83 E5        29.96F
ROLLA          FOG       59  59 100 S10       29.97F VSB 1/4
SEDALIA        CLOUDY    63  58  83 SE8       29.95S
WHITEMAN AFB   CLOUDY    64  59  85 S7        29.92S
WARRENSBURG    CLOUDY    61  57  88 SE5       29.92F
OSAGE BEACH    CLOUDY    64  59  82 SE8       29.96F

$$
MOZ051-052-059>065-181400-
...EAST CENTRAL MISSOURI...

CITY           SKY/WX    TMP DP  RH WIND       PRES   REMARKS
ST LOUIS INTL  CLOUDY    63  58  83 E3        30.01S HAZE
SPIRIT OF STL  CLOUDY    60  57  89 CALM      30.00R
ST CHARLES     CLOUDY    61  58  90 E6        30.00S FOG

$$
MOZ072>076-082>087-097>100-106>115-181400-
...SOUTH CENTRAL AND SOUTHEAST MISSOURI...

CITY           SKY/WX    TMP DP  RH WIND       PRES   REMARKS
CAPE GIRARDEAU FOG       59  59 100 E3        29.99F VSB<1/4
FARMINGTON     CLOUDY    57  57 100 NE3       30.03F VSB 1/4
POPLAR BLUFF   FOG       59  58  96 NE3       29.98F VSB 1/4
WEST PLAINS    CLOUDY    63  61  93 E3        29.98S FOG

$$


USA.gov is the U.S. government's official web portal to all federal, state and local government web resources and services.